Terug naar catalogus

DELTA 2 R/B

ActiefPO
NORAD 24797·ROCKET BODY·🇺🇸 United States

Gelanceerd May 5, 1997 vanaf Vandenberg Space Force Base

Loading…

Volgende Passages (komende 24 uur)

TLE

VersSource: Space-Track

Epoch: Sep 14, 2026, 07:16 UTC

1 24797U 97020F   26257.30298669  .00000302  00000-0  55841-4 0  9994
2 24797  86.9009 194.6107 0213035 200.2625 320.2494 14.48034825545481

Volg DELTA 2 R/B in realtime met AllMySat

Download on the App Store